HAZ2828 ZBAD-ZSHC

Flight info

Callsign HAZ2828
Flight time 1h 28m
Altitude 37100
Route ELKUR W40 YQG/K0857S1160 W142 DALIM/K0856S1130 A593 DPX A470 IGRAT
Aircraft A346/H-SDE2E3FGHIJ3J4J5M1RWXY/LB1D1

Departure

Time 2026-04-26 04:18
Airport Beijing Daxing International Airport (ZBAD)

Arrival

Time 2026-04-26 05:46
Airport Hangzhou Xiaoshan International Airport (ZSHC)
Time Latitude Longitude Altitude Speed Heading
2026-04-26 03:32 39.51006 116.41446 113 ft 0 kts 230°
2026-04-26 04:04 39.51010 116.41453 112 ft 4 kts 230°
2026-04-26 04:05 39.51027 116.41478 112 ft 2 kts 230°
2026-04-26 04:05 39.51041 116.41501 113 ft 4 kts 232°
2026-04-26 04:05 39.51057 116.41529 112 ft 4 kts 235°
2026-04-26 04:05 39.51073 116.41557 112 ft 4 kts 235°
2026-04-26 04:06 39.51085 116.41580 112 ft 4 kts 237°
2026-04-26 04:06 39.51098 116.41610 112 ft 4 kts 244°
2026-04-26 04:06 39.51109 116.41641 112 ft 3 kts 244°
2026-04-26 04:06 39.51118 116.41666 112 ft 4 kts 247°
2026-04-26 04:07 39.51128 116.41699 112 ft 4 kts 251°
2026-04-26 04:07 39.51134 116.41723 112 ft 0 kts 250°
2026-04-26 04:10 39.51131 116.41711 112 ft 0 kts 250°
2026-04-26 04:11 39.51131 116.41710 112 ft 1 kts 250°
2026-04-26 04:11 39.51125 116.41689 113 ft 4 kts 250°
2026-04-26 04:11 39.51118 116.41662 113 ft 6 kts 251°
2026-04-26 04:11 39.51090 116.41588 115 ft 12 kts 211°
2026-04-26 04:12 39.51017 116.41694 116 ft 15 kts 95°
2026-04-26 04:12 39.51015 116.41862 116 ft 23 kts 89°
2026-04-26 04:12 39.51031 116.42073 116 ft 21 kts 83°
2026-04-26 04:12 39.51065 116.42164 114 ft 17 kts 24°
2026-04-26 04:13 39.51192 116.42156 113 ft 20 kts 355°
2026-04-26 04:13 39.51330 116.42137 114 ft 13 kts 352°
2026-04-26 04:13 39.51405 116.42169 114 ft 13 kts 58°
2026-04-26 04:13 39.51423 116.42297 114 ft 15 kts 82°
2026-04-26 04:14 39.51438 116.42443 113 ft 21 kts 82°
2026-04-26 04:14 39.51469 116.42714 112 ft 39 kts 82°
2026-04-26 04:14 39.51499 116.43086 112 ft 32 kts 85°
2026-04-26 04:14 39.51583 116.43221 115 ft 15 kts 19°
2026-04-26 04:15 39.51658 116.43215 115 ft 8 kts
2026-04-26 04:15 39.51729 116.43199 113 ft 7 kts 356°
2026-04-26 04:15 39.51733 116.43217 114 ft 5 kts 124°
2026-04-26 04:15 39.51654 116.43299 113 ft 17 kts 138°
2026-04-26 04:16 39.51626 116.43391 114 ft 10 kts 108°
2026-04-26 04:16 39.51614 116.43440 114 ft 0 kts 103°
2026-04-26 04:17 39.51582 116.43615 115 ft 49 kts 103°
2026-04-26 04:17 39.51463 116.44303 113 ft 106 kts 101°
2026-04-26 04:18 39.51259 116.45444 114 ft 152 kts 103°
2026-04-26 04:18 39.50987 116.46918 267 ft 176 kts 103°
2026-04-26 04:18 39.50681 116.48472 731 ft 180 kts 99°
2026-04-26 04:18 39.50391 116.50060 1326 ft 181 kts 98°
2026-04-26 04:19 39.50122 116.51643 1986 ft 180 kts 98°
2026-04-26 04:19 39.49852 116.53225 2537 ft 180 kts 98°
2026-04-26 04:19 39.49575 116.54815 3060 ft 182 kts 99°
2026-04-26 04:19 39.49285 116.56415 3519 ft 186 kts 98°
2026-04-26 04:20 39.48986 116.58108 3840 ft 199 kts 98°
2026-04-26 04:20 39.48666 116.59923 4108 ft 214 kts 99°
2026-04-26 04:20 39.48321 116.61870 4374 ft 230 kts 99°
2026-04-26 04:20 39.47959 116.63933 4628 ft 244 kts 97°
2026-04-26 04:21 39.47623 116.66149 4873 ft 256 kts 96°
2026-04-26 04:21 39.47286 116.68440 4916 ft 260 kts 97°
2026-04-26 04:21 39.46947 116.70745 4918 ft 261 kts 97°
2026-04-26 04:21 39.46601 116.73049 4922 ft 260 kts 97°
2026-04-26 04:22 39.46246 116.75350 4916 ft 261 kts 100°
2026-04-26 04:22 39.45399 116.77445 4904 ft 271 kts 130°
2026-04-26 04:22 39.43783 116.78808 5111 ft 288 kts 155°
2026-04-26 04:22 39.41902 116.79720 5966 ft 288 kts 156°
2026-04-26 04:23 39.40025 116.80645 6759 ft 291 kts 157°
2026-04-26 04:23 39.38117 116.81608 7437 ft 297 kts 158°
2026-04-26 04:23 39.36178 116.82594 8175 ft 301 kts 159°
2026-04-26 04:23 39.34229 116.83584 9034 ft 301 kts 161°
2026-04-26 04:24 39.32274 116.84576 9840 ft 303 kts 162°
2026-04-26 04:24 39.30297 116.85572 10479 ft 310 kts 162°
2026-04-26 04:24 39.28235 116.86598 10847 ft 326 kts 162°
2026-04-26 04:24 39.26064 116.87683 11170 ft 343 kts 162°
2026-04-26 04:25 39.23780 116.88834 11484 ft 361 kts 162°
2026-04-26 04:25 39.21383 116.90042 11796 ft 378 kts 162°
2026-04-26 04:25 39.18883 116.91300 12139 ft 394 kts 161°
2026-04-26 04:25 39.16304 116.92601 12710 ft 401 kts 161°
2026-04-26 04:26 39.13698 116.93919 13478 ft 403 kts 161°
2026-04-26 04:26 39.11074 116.95244 14182 ft 407 kts 161°
2026-04-26 04:26 39.08430 116.96574 14782 ft 410 kts 161°
2026-04-26 04:26 39.05760 116.97916 15441 ft 413 kts 161°
2026-04-26 04:27 39.03067 116.99270 16084 ft 417 kts 161°
2026-04-26 04:27 39.00353 117.00633 16720 ft 420 kts 162°
2026-04-26 04:27 38.97624 117.02002 17353 ft 424 kts 162°
2026-04-26 04:27 38.94861 117.03387 17981 ft 428 kts 162°
2026-04-26 04:28 38.92077 117.04781 18544 ft 432 kts 162°
2026-04-26 04:28 38.89256 117.06149 19063 ft 434 kts 166°
2026-04-26 04:28 38.86292 117.06711 19511 ft 429 kts 186°
2026-04-26 04:28 38.83393 117.06033 20045 ft 421 kts 204°
2026-04-26 04:29 38.80834 117.04290 20567 ft 414 kts 221°
2026-04-26 04:29 38.78827 117.01693 21071 ft 408 kts 238°
2026-04-26 04:29 38.77413 116.98562 21645 ft 406 kts 245°
2026-04-26 04:29 38.76092 116.95352 22260 ft 407 kts 245°
2026-04-26 04:30 38.74762 116.92136 22822 ft 410 kts 245°
2026-04-26 04:30 38.73412 116.88894 23309 ft 413 kts 245°
2026-04-26 04:30 38.72049 116.85633 23766 ft 416 kts 245°
2026-04-26 04:30 38.70672 116.82352 24207 ft 419 kts 245°
2026-04-26 04:31 38.69285 116.79060 24656 ft 421 kts 245°
2026-04-26 04:31 38.67908 116.75796 25099 ft 423 kts 245°
2026-04-26 04:31 38.66487 116.72483 25514 ft 427 kts 242°
2026-04-26 04:31 38.64584 116.69516 25872 ft 439 kts 226°
2026-04-26 04:32 38.62041 116.67288 26316 ft 450 kts 211°
2026-04-26 04:32 38.59033 116.65983 26692 ft 465 kts 196°
2026-04-26 04:32 38.55788 116.65518 27089 ft 472 kts 190°
2026-04-26 04:32 38.52509 116.65159 27457 ft 475 kts 190°
2026-04-26 04:33 38.49206 116.64799 27829 ft 478 kts 190°
2026-04-26 04:33 38.45892 116.64432 28354 ft 477 kts 190°
2026-04-26 04:33 38.42600 116.64061 28991 ft 474 kts 191°
2026-04-26 04:33 38.39325 116.63687 29595 ft 471 kts 191°
2026-04-26 04:34 38.36053 116.63413 30129 ft 473 kts 187°
2026-04-26 04:34 38.32747 116.63395 30521 ft 476 kts 184°
2026-04-26 04:34 38.29431 116.63646 30932 ft 479 kts 180°
2026-04-26 04:34 38.26109 116.64172 31344 ft 482 kts 176°
2026-04-26 04:35 38.22803 116.64972 31758 ft 485 kts 173°
2026-04-26 04:35 38.19530 116.66045 32179 ft 488 kts 169°
2026-04-26 04:35 38.16276 116.67261 32570 ft 488 kts 168°
2026-04-26 04:35 38.13019 116.68485 32973 ft 488 kts 169°
2026-04-26 04:36 38.09764 116.69708 33352 ft 488 kts 168°
2026-04-26 04:36 38.06513 116.70947 33744 ft 488 kts 168°
2026-04-26 04:36 38.03260 116.72193 34103 ft 488 kts 168°
2026-04-26 04:36 38.00013 116.73434 34420 ft 488 kts 168°
2026-04-26 04:37 37.96769 116.74672 34715 ft 488 kts 169°
2026-04-26 04:37 37.93518 116.75910 35003 ft 488 kts 169°
2026-04-26 04:37 37.90257 116.77149 35275 ft 489 kts 169°
2026-04-26 04:37 37.86996 116.78386 35513 ft 490 kts 169°
2026-04-26 04:38 37.83718 116.79628 35720 ft 492 kts 169°
2026-04-26 04:38 37.80430 116.80873 35918 ft 494 kts 169°
2026-04-26 04:38 37.77133 116.82120 36126 ft 495 kts 169°
2026-04-26 04:38 37.73831 116.83368 36327 ft 497 kts 169°
2026-04-26 04:39 37.70508 116.84623 36490 ft 498 kts 169°
2026-04-26 04:39 37.67179 116.85878 36652 ft 500 kts 169°
2026-04-26 04:39 37.63837 116.87138 36830 ft 502 kts 169°
2026-04-26 04:39 37.60487 116.88399 36971 ft 503 kts 169°
2026-04-26 04:40 37.57134 116.89662 36971 ft 503 kts 169°
2026-04-26 04:40 37.50475 116.92166 36975 ft 503 kts 169°
2026-04-26 04:41 37.43755 116.94684 36970 ft 504 kts 168°
2026-04-26 04:41 37.37039 116.97199 36978 ft 504 kts 168°
2026-04-26 04:42 37.30314 116.99731 36980 ft 505 kts 167°
2026-04-26 04:42 37.23679 117.02745 36959 ft 507 kts 164°
2026-04-26 04:43 37.17059 117.05860 36974 ft 508 kts 164°
2026-04-26 04:43 37.10431 117.08959 36981 ft 508 kts 164°
2026-04-26 04:44 37.03758 117.12070 36985 ft 508 kts 164°
2026-04-26 04:44 36.97135 117.15150 36966 ft 509 kts 164°
2026-04-26 04:45 36.90478 117.18155 36976 ft 506 kts 167°
2026-04-26 04:45 36.83717 117.20315 36991 ft 498 kts 175°
2026-04-26 04:46 36.76884 117.21415 36980 ft 492 kts 182°
2026-04-26 04:46 36.70074 117.21550 36986 ft 489 kts 186°
2026-04-26 04:47 36.63266 117.21468 36998 ft 489 kts 186°
2026-04-26 04:47 36.56462 117.21413 37004 ft 489 kts 186°
2026-04-26 04:48 36.46227 117.21551 37000 ft 494 kts 181°
2026-04-26 04:48 36.39368 117.22619 37007 ft 499 kts 174°
2026-04-26 04:49 36.32586 117.24688 37009 ft 504 kts 168°
2026-04-26 04:49 36.25867 117.27217 37006 ft 505 kts 168°
2026-04-26 04:50 36.19134 117.29736 37008 ft 505 kts 168°
2026-04-26 04:50 36.12395 117.32236 37010 ft 505 kts 168°
2026-04-26 04:51 36.05653 117.34726 36984 ft 506 kts 168°
2026-04-26 04:51 35.98906 117.37217 36998 ft 506 kts 168°
2026-04-26 04:52 35.92167 117.39741 37005 ft 506 kts 168°
2026-04-26 04:52 35.85429 117.42268 37006 ft 506 kts 168°
2026-04-26 04:53 35.78681 117.44790 36994 ft 507 kts 168°
2026-04-26 04:53 35.71925 117.47308 37004 ft 507 kts 168°
2026-04-26 04:54 35.65221 117.49805 37008 ft 506 kts 168°
2026-04-26 04:54 35.58488 117.52307 37007 ft 505 kts 168°
2026-04-26 04:55 35.51758 117.54803 37009 ft 505 kts 168°
2026-04-26 04:55 35.45024 117.57296 37009 ft 505 kts 168°
2026-04-26 04:56 35.39426 117.59364 37007 ft 505 kts 168°
2026-04-26 04:56 35.32694 117.61847 36974 ft 506 kts 168°
2026-04-26 04:57 35.25894 117.64351 37004 ft 514 kts 168°
2026-04-26 04:57 35.19030 117.66873 37011 ft 515 kts 168°
2026-04-26 04:58 35.12159 117.69396 37012 ft 516 kts 168°
2026-04-26 04:58 35.05281 117.71916 37005 ft 516 kts 168°
2026-04-26 04:59 34.98406 117.74435 37011 ft 517 kts 168°
2026-04-26 04:59 34.91518 117.76954 37013 ft 516 kts 168°
2026-04-26 05:00 34.84634 117.79469 37018 ft 517 kts 168°
2026-04-26 05:00 34.77741 117.81982 37019 ft 518 kts 168°
2026-04-26 05:01 34.70821 117.84471 37019 ft 518 kts 168°
2026-04-26 05:01 34.63907 117.86952 37018 ft 518 kts 168°
2026-04-26 05:02 34.56987 117.89433 36993 ft 518 kts 168°
2026-04-26 05:02 34.50061 117.91912 37018 ft 519 kts 168°
2026-04-26 05:03 34.43183 117.94371 37017 ft 519 kts 168°
2026-04-26 05:03 34.36261 117.96842 37016 ft 519 kts 168°
2026-04-26 05:04 34.29330 117.99311 37007 ft 519 kts 168°
2026-04-26 05:04 34.22411 118.01807 37019 ft 519 kts 168°
2026-04-26 05:05 34.15489 118.04338 37020 ft 520 kts 168°
2026-04-26 05:05 34.08567 118.06858 37028 ft 519 kts 168°
2026-04-26 05:06 34.01656 118.09364 37020 ft 518 kts 168°
2026-04-26 05:06 33.94761 118.11871 37021 ft 518 kts 168°
2026-04-26 05:07 33.87860 118.14383 37028 ft 518 kts 168°
2026-04-26 05:07 33.80964 118.16887 37003 ft 518 kts 168°
2026-04-26 05:08 33.74058 118.19402 37030 ft 519 kts 168°
2026-04-26 05:08 33.67144 118.21920 37015 ft 519 kts 168°
2026-04-26 05:09 33.60238 118.24430 37019 ft 519 kts 168°
2026-04-26 05:09 33.53321 118.26938 37016 ft 520 kts 168°
2026-04-26 05:10 33.46395 118.29445 37027 ft 520 kts 168°
2026-04-26 05:10 33.39467 118.31950 37033 ft 520 kts 168°
2026-04-26 05:11 33.32585 118.34433 37031 ft 520 kts 168°
2026-04-26 05:11 33.25656 118.36928 37030 ft 521 kts 168°
2026-04-26 05:12 33.18733 118.39420 37030 ft 519 kts 168°
2026-04-26 05:12 33.11821 118.41911 37034 ft 519 kts 168°
2026-04-26 05:13 33.04912 118.44396 37037 ft 519 kts 168°
2026-04-26 05:13 32.97999 118.46878 37034 ft 519 kts 168°
2026-04-26 05:14 32.91089 118.49354 37034 ft 519 kts 168°
2026-04-26 05:14 32.84177 118.51827 37034 ft 519 kts 168°
2026-04-26 05:15 32.77258 118.54298 37016 ft 519 kts 168°
2026-04-26 05:15 32.70340 118.56764 37035 ft 519 kts 168°
2026-04-26 05:16 32.63492 118.59560 37038 ft 522 kts 163°
2026-04-26 05:16 32.56714 118.62661 37034 ft 522 kts 163°
2026-04-26 05:17 32.49938 118.65760 37029 ft 522 kts 163°
2026-04-26 05:17 32.43159 118.68846 37039 ft 520 kts 163°
2026-04-26 05:18 32.36403 118.71912 37042 ft 520 kts 163°
2026-04-26 05:18 32.29644 118.74973 37042 ft 520 kts 163°
2026-04-26 05:19 32.22879 118.78031 37028 ft 521 kts 163°
2026-04-26 05:19 32.16102 118.81091 37042 ft 521 kts 163°
2026-04-26 05:20 32.09329 118.84145 36606 ft 522 kts 163°
2026-04-26 05:20 32.05920 118.85678 35814 ft 526 kts 163°
2026-04-26 05:20 32.02475 118.87224 34999 ft 532 kts 163°
2026-04-26 05:21 31.99017 118.88777 34327 ft 533 kts 163°
2026-04-26 05:21 31.95561 118.90331 33698 ft 532 kts 162°
2026-04-26 05:21 31.92099 118.91888 33069 ft 531 kts 162°
2026-04-26 05:21 31.88699 118.93417 32477 ft 529 kts 162°
2026-04-26 05:22 31.85262 118.94959 31884 ft 528 kts 163°
2026-04-26 05:22 31.81831 118.96496 31285 ft 527 kts 163°
2026-04-26 05:22 31.78412 118.98032 30705 ft 525 kts 163°
2026-04-26 05:22 31.75000 118.99565 30110 ft 524 kts 163°
2026-04-26 05:23 31.71596 119.01092 29412 ft 523 kts 163°
2026-04-26 05:23 31.68192 119.02615 28698 ft 522 kts 163°
2026-04-26 05:23 31.64777 119.04026 27992 ft 520 kts 167°
2026-04-26 05:23 31.61306 119.05209 27282 ft 518 kts 169°
2026-04-26 05:24 31.57891 119.06554 26789 ft 518 kts 162°
2026-04-26 05:24 31.54666 119.08421 26332 ft 517 kts 153°
2026-04-26 05:24 31.51680 119.10755 25897 ft 515 kts 147°
2026-04-26 05:24 31.48835 119.13274 25448 ft 511 kts 145°
2026-04-26 05:25 31.46027 119.15811 25015 ft 506 kts 146°
2026-04-26 05:25 31.43232 119.18299 24575 ft 503 kts 146°
2026-04-26 05:25 31.40446 119.20749 24123 ft 499 kts 146°
2026-04-26 05:25 31.37676 119.23170 23700 ft 495 kts 147°
2026-04-26 05:26 31.34915 119.25576 23205 ft 492 kts 147°
2026-04-26 05:26 31.32179 119.27953 22767 ft 488 kts 146°
2026-04-26 05:26 31.29472 119.30308 22347 ft 483 kts 146°
2026-04-26 05:26 31.26787 119.32644 21936 ft 478 kts 146°
2026-04-26 05:27 31.24132 119.34952 21532 ft 473 kts 146°
2026-04-26 05:27 31.21503 119.37235 21138 ft 469 kts 146°
2026-04-26 05:27 31.18895 119.39500 20727 ft 465 kts 146°
2026-04-26 05:27 31.16311 119.41757 20323 ft 462 kts 146°
2026-04-26 05:28 31.13749 119.43997 19915 ft 458 kts 146°
2026-04-26 05:28 31.11210 119.46216 19516 ft 454 kts 146°
2026-04-26 05:28 31.08689 119.48419 19129 ft 451 kts 146°
2026-04-26 05:28 31.06185 119.50605 18733 ft 447 kts 146°
2026-04-26 05:29 31.03700 119.52772 18340 ft 445 kts 145°
2026-04-26 05:29 31.01231 119.54922 17905 ft 442 kts 145°
2026-04-26 05:29 30.98776 119.57060 17485 ft 438 kts 145°
2026-04-26 05:29 30.96381 119.59145 17092 ft 434 kts 145°
2026-04-26 05:30 30.93940 119.61268 16699 ft 430 kts 145°
2026-04-26 05:30 30.91556 119.63340 16305 ft 426 kts 145°
2026-04-26 05:30 30.89217 119.65372 15927 ft 423 kts 145°
2026-04-26 05:30 30.86867 119.67412 15532 ft 419 kts 145°
2026-04-26 05:31 30.84539 119.69432 15146 ft 416 kts 144°
2026-04-26 05:31 30.82223 119.71440 14771 ft 413 kts 144°
2026-04-26 05:31 30.79930 119.73427 14373 ft 410 kts 144°
2026-04-26 05:31 30.77647 119.75403 13987 ft 407 kts 144°
2026-04-26 05:32 30.75385 119.77362 13573 ft 404 kts 144°
2026-04-26 05:32 30.73142 119.79303 13151 ft 400 kts 144°
2026-04-26 05:32 30.70921 119.81235 12745 ft 397 kts 144°
2026-04-26 05:32 30.68756 119.83198 12346 ft 393 kts 142°
2026-04-26 05:33 30.66621 119.85160 11945 ft 389 kts 143°
2026-04-26 05:33 30.64456 119.87012 11546 ft 385 kts 147°
2026-04-26 05:33 30.62203 119.88671 11151 ft 381 kts 151°
2026-04-26 05:33 30.59896 119.90164 10753 ft 378 kts 152°
2026-04-26 05:34 30.57602 119.91612 10484 ft 376 kts 153°
2026-04-26 05:34 30.55243 119.93099 10918 ft 391 kts 153°
2026-04-26 05:34 30.52869 119.94601 11595 ft 384 kts 153°
2026-04-26 05:34 30.50556 119.96067 11528 ft 375 kts 153°
2026-04-26 05:35 30.48255 119.97522 10785 ft 381 kts 153°
2026-04-26 05:35 30.45898 119.99011 9984 ft 389 kts 153°
2026-04-26 05:35 30.43534 120.00506 9521 ft 384 kts 152°
2026-04-26 05:35 30.41214 120.01975 9180 ft 376 kts 152°
2026-04-26 05:36 30.38952 120.03409 8777 ft 365 kts 152°
2026-04-26 05:36 30.36755 120.04801 8389 ft 354 kts 152°
2026-04-26 05:36 30.34625 120.06149 7997 ft 343 kts 153°
2026-04-26 05:36 30.32593 120.07435 7763 ft 320 kts 153°
2026-04-26 05:37 30.30728 120.08615 7784 ft 295 kts 153°
2026-04-26 05:37 30.28931 120.09749 7856 ft 293 kts 153°
2026-04-26 05:37 30.27169 120.10859 7853 ft 292 kts 153°
2026-04-26 05:37 30.25356 120.12003 7599 ft 294 kts 153°
2026-04-26 05:38 30.23563 120.13121 7239 ft 292 kts 157°
2026-04-26 05:38 30.21628 120.13606 6899 ft 282 kts 190°
2026-04-26 05:38 30.19869 120.12856 6826 ft 265 kts 219°
2026-04-26 05:38 30.18693 120.11335 6572 ft 255 kts 244°
2026-04-26 05:39 30.15337 120.06551 5849 ft 247 kts 191°
2026-04-26 05:39 30.11168 120.08591 5005 ft 252 kts 122°
2026-04-26 05:39 30.10620 120.10472 4717 ft 249 kts 89°
2026-04-26 05:39 30.10979 120.12401 4364 ft 246 kts 63°
2026-04-26 05:40 30.11802 120.14121 4081 ft 243 kts 57°
2026-04-26 05:40 30.12659 120.15760 3988 ft 233 kts 59°
2026-04-26 05:40 30.13460 120.17384 3987 ft 232 kts 60°
2026-04-26 05:40 30.14204 120.18983 3972 ft 217 kts 61°
2026-04-26 05:41 30.14872 120.20473 3809 ft 203 kts 62°
2026-04-26 05:41 30.15682 120.22313 3457 ft 193 kts 62°
2026-04-26 05:41 30.16906 120.25113 2907 ft 176 kts 63°
2026-04-26 05:42 30.18116 120.27875 2433 ft 168 kts 63°
2026-04-26 05:42 30.18790 120.29410 2162 ft 167 kts 62°
2026-04-26 05:42 30.19184 120.30308 2007 ft 167 kts 62°
2026-04-26 05:42 30.19399 120.30797 1913 ft 167 kts 62°
2026-04-26 05:43 30.19531 120.31096 1851 ft 167 kts 62°
2026-04-26 05:43 30.19618 120.31294 1825 ft 167 kts 62°
2026-04-26 05:43 30.19750 120.31594 1766 ft 167 kts 62°
2026-04-26 05:43 30.19882 120.31894 1708 ft 167 kts 62°
2026-04-26 05:44 30.20205 120.32629 1599 ft 166 kts 62°
2026-04-26 05:44 30.20729 120.33819 1358 ft 166 kts 63°
2026-04-26 05:44 30.21250 120.35002 1128 ft 165 kts 63°
2026-04-26 05:44 30.21770 120.36182 920 ft 164 kts 63°
2026-04-26 05:45 30.22286 120.37355 712 ft 163 kts 62°
2026-04-26 05:45 30.22798 120.38517 481 ft 161 kts 62°
2026-04-26 05:45 30.23304 120.39666 269 ft 159 kts 62°
2026-04-26 05:45 30.23809 120.40807 87 ft 160 kts 62°
2026-04-26 05:46 30.24266 120.41840 41 ft 120 kts 62°
2026-04-26 05:46 30.24566 120.42514 38 ft 68 kts 62°
2026-04-26 05:46 30.24708 120.42858 39 ft 38 kts 77°
2026-04-26 05:46 30.24719 120.43092 41 ft 20 kts 92°
2026-04-26 05:47 30.24702 120.43229 38 ft 17 kts 131°
2026-04-26 05:47 30.24595 120.43234 40 ft 19 kts 227°
2026-04-26 05:47 30.24535 120.43101 40 ft 20 kts 242°
2026-04-26 05:47 30.24467 120.42952 40 ft 22 kts 242°
2026-04-26 05:48 30.24394 120.42790 40 ft 24 kts 243°
2026-04-26 05:48 30.24330 120.42643 40 ft 19 kts 244°
2026-04-26 05:48 30.24266 120.42493 40 ft 22 kts 243°
2026-04-26 05:48 30.24194 120.42330 40 ft 24 kts 243°
2026-04-26 05:49 30.24105 120.42177 40 ft 15 kts 192°
2026-04-26 05:49 30.23978 120.42296 39 ft 7 kts 137°
2026-04-26 05:49 30.23972 120.42302 40 ft 0 kts 137°